RH
64 54 51 51 56 60 59 64 69 75 76 72 72 68 66 68 55 54 55 49 54 58 57 56 56 56 55 58 58 60 61 61 62 62 61 60 59 59
68 57 56 58 61 64 66 61 60 70 76 70 76 72 60 51 50 53 49 48 50 52 54 52 54 55 56 58 60 61 63 64 63 63 62 61 61 60
63 57 55 56 63 65 67 61 58 73 77 77 73 68 64 53 58 51 47 44 61 48 49 48 49 53 56 58 58 59 61 64 65 64 63 63 63 62
55 57 58 48 62 64 68 63 68 72 77 76 76 73 69 59 56 51 36 30 44 39 37 40 44 49 51 51 53 54 62 64 64 63 63 63 63 62
55 57 57 60 66 69 68 67 67 61 72 73 81 74 71 62 60 49 45 46 29 35 40 39 41 45 46 48 50 56 62 63 63 63 63 62 62 61
60 59 55 58 62 67 63 65 66 74 74 76 75 77 73 61 61 59 58 55 53 38 45 45 42 44 44 48 50 57 60 61 63 62 62 61 62 61
66 56 62 67 70 64 59 67 69 72 72 74 78 76 73 66 64 62 58 57 65 66 63 62 62 64 62 59 55 55 57 61 61 62 62 62 61 60
60 61 65 72 70 69 69 68 64 65 74 76 79 73 64 61 61 60 62 65 62 72 66 65 65 64 66 63 54 52 58 59 59 61 63 62 62 62
57 62 54 60 71 71 74 74 70 65 61 67 69 64 61 62 61 64 70 78 76 68 68 70 68 68 69 54 58 54 61 61 59 64 64 62 62 63
57 53 59 66 72 68 63 60 58 60 58 48 61 63 65 64 65 66 69 70 72 66 69 89 72 74 71 73 58 61 63 65 61 65 65 62 62 63
57 58 61 69 70 66 64 70 68 66 58 58 58 57 55 53 58 69 85 91 92 68 73 75 76 76 73 72 68 66 66 66 67 67 66 63 62 64
57 63 72 72 68 64 63 69 78 77 75 76 72 67 70 62 64 73 78 95 96 94 76 86 89 90 91 77 67 69 69 68 70 70 68 63 64 65
62 66 70 73 67 64 63 66 70 71 65 58 58 68 67 74 72 72 73 86 97 97 73 86 98 90 87 83 73 70 78 72 75 75 74 66 63 66
64 71 72 74 68 65 64 65 64 56 54 58 64 67 75 81 81 78 74 75 76 77 72 73 96 96 95 90 85 77 77 79 81 87 71 68 68 69
75 76 76 73 70 65 66 62 56 55 59 68 75 82 86 82 80 84 81 76 80 81 69 70 90 90 94 95 88 84 87 85 85 75 76 75 76 75
81 76 71 70 66 65 60 58 61 67 75 80 85 84 89 94 89 90 95 93 96 93 80 78 79 82 91 87 92 94 89 96 83 78 78 78 68 67
83 80 78 77 78 79 86 88 85 79 78 80 86 92 88 89 92 93 96 96 98 97 96 91 75 76 86 88 94 87 90 90 84 84 83 80 72 65
83 88 90 86 86 85 88 93 91 90 93 88 90 90 94 98 97 97 97 98 98 98 97 96 92 94 93 84 71 90 90 86 86 82 78 89 82 68
87 87 87 87 89 90 91 92 95 95 91 92 93 96 95 96 96 98 98 98 97 97 95 96 96 98 93 92 80 63 87 89 86 84 81 85 88 77
86 90 93 94 95 93 94 96 96 92 93 94 95 96 97 97 98 98 96 97 98 97 90 82 90 94 97 94 93 84 73 83 86 86 84 80 75 63
96 96 95 95 93 94 95 95 91 93 94 96 97 98 98 97 97 92 94 78 79 94 95 85 83 67 93 96 93 86 75 63 66 78 81 87 90 80
95 95 95 94 95 94 94 93 93 93 97 98 97 98 97 97 98 96 93 96 93 93 94 88 93 95 99 98 93 92 82 70 65 63 59 62 86 92
94 94 96 96 96 96 96 95 96 96 97 97 97 98 96 87 86 90 88 95 95 95 88 93 97 97 97 98 86 89 86 79 76 73 69 61 58 56
Wind_Speed
6 7 5 3 4 4 5 4 6 4 2 3 3 4 4 4 2 3 4 5 8 9 9 10 10 11 12 14 15 16 16 16 17 19 20 21 22 23
5 8 5 3 5 4 4 3 3 5 4 3 2 4 4 4 2 3 1 2 6 8 9 9 9 11 12 14 15 16 16 17 19 20 21 22 23 24
7 8 8 7 5 4 3 3 3 4 5 3 3 3 3 4 3 2 2 3 3 6 7 8 8 10 12 13 15 15 16 18 19 20 21 23 24 24
11 9 7 6 7 6 4 5 4 4 5 7 3 2 3 3 3 2 2 3 3 4 6 7 8 9 10 11 13 13 16 17 18 20 21 22 24 24
11 11 9 8 6 5 5 5 5 4 5 7 4 3 2 1 1 1 2 2 1 3 9 8 7 10 10 11 12 14 16 17 18 20 20 21 22 23
8 9 10 10 9 8 7 6 6 6 6 6 5 4 3 1 3 2 2 2 2 4 7 7 8 9 10 12 11 13 16 18 18 19 19 20 21 22
7 8 7 8 10 8 8 6 8 6 7 7 4 3 2 2 2 1 2 1 3 3 3 3 3 4 4 8 8 12 16 18 18 18 20 20 21 23
10 7 7 12 11 14 13 11 9 11 6 5 3 4 4 3 2 3 2 2 1 2 4 4 3 4 3 4 12 14 18 18 18 21 21 21 22 23
11 11 9 8 12 12 18 17 13 11 8 6 7 5 5 4 5 3 2 2 1 2 3 2 2 3 2 5 11 16 19 20 20 23 22 23 24 25
12 12 13 12 12 14 12 12 10 9 7 7 9 7 6 5 5 3 3 2 0 2 2 1 2 4 3 4 11 20 19 20 22 24 23 23 25 26
10 11 12 12 20 22 14 14 12 10 16 21 20 17 15 12 7 3 2 3 3 2 3 2 3 5 3 3 4 20 21 21 26 24 24 25 28 27
10 12 18 16 23 20 14 14 13 9 11 10 10 11 9 8 11 5 2 3 1 2 2 2 3 3 6 3 7 7 8 17 24 24 25 27 29 11
10 10 10 23 23 21 17 10 12 12 14 9 7 5 5 3 4 3 3 3 2 0 2 3 1 1 2 5 6 6 5 10 10 11 18 24 26 22
11 10 14 22 21 21 15 24 24 16 8 7 6 4 3 3 3 3 2 2 1 3 3 0 2 1 2 6 5 6 8 8 7 5 11 17 22 22
10 16 24 22 22 18 24 23 18 7 7 6 5 3 3 3 3 2 2 2 2 3 3 2 3 4 3 4 7 8 11 5 6 10 8 11 11 10
22 17 17 16 16 19 16 11 6 5 6 6 5 4 2 2 3 1 1 1 1 2 3 5 4 2 5 5 6 10 7 5 8 8 8 10 10 9
19 13 11 10 9 8 7 7 6 5 5 5 5 4 3 2 2 0 1 1 1 2 3 3 3 4 5 7 6 7 8 6 6 10 11 11 11 10
15 13 11 10 9 8 8 7 6 7 5 5 4 4 3 2 2 1 1 1 0 2 2 3 4 3 3 4 5 4 5 7 9 9 9 8 11 12
11 10 10 10 9 8 7 7 6 5 5 4 4 4 4 2 3 1 1 1 1 2 2 2 3 2 6 8 5 6 10 11 9 9 8 8 10 14
9 10 10 9 8 8 8 7 7 5 4 4 4 4 3 2 2 2 2 1 2 2 3 5 3 4 5 7 9 11 14 9 8 11 11 10 10 19
8 8 8 8 8 7 7 7 7 5 5 4 3 3 3 3 2 1 1 4 5 2 3 5 5 14 4 4 6 6 7 15 14 11 12 10 7 11
8 9 8 8 8 8 7 7 6 5 4 3 3 3 2 2 2 0 2 1 2 2 3 4 4 4 2 2 9 10 9 9 14 19 17 15 7 10
8 8 8 8 7 7 7 6 6 5 4 4 3 3 2 2 0 1 1 1 2 3 4 4 3 2 3 2 11 8 12 13 10 12 12 19 19 23
Wind_Direction
141 130 116 90 95 108 120 146 137 144 152 212 142 149 132 113 80 70 79 65 48 46 41 33 29 23 19 15 10 4 3 360 354 351 348 347 345 343
138 125 117 113 104 109 138 137 106 130 126 150 136 140 142 123 125 102 104 92 75 44 35 28 23 17 11 8 5 2 1 356 351 349 348 346 342 340
144 142 145 142 135 130 119 119 102 105 115 71 101 126 111 138 135 119 103 94 107 48 25 22 17 8 3 2 2 3 360 355 351 351 348 344 342 340
163 143 152 144 141 139 134 131 121 117 119 132 118 126 122 124 130 112 49 87 114 42 14 14 12 2 358 358 360 3 359 355 354 351 348 346 342 339
161 150 156 142 138 132 143 132 121 107 117 135 127 123 116 115 133 113 150 52 206 39 16 2 0 1 360 1 3 2 358 356 351 352 349 343 338 336
153 145 155 152 147 148 140 133 118 104 104 114 111 123 121 144 97 99 47 30 28 29 0 360 5 356 359 4 357 356 358 352 353 349 345 338 337 337
126 135 136 128 131 140 140 142 128 119 124 131 125 121 116 119 150 148 104 349 55 22 345 335 3 347 350 354 335 352 351 354 351 345 340 341 339 339
137 124 121 128 128 122 123 129 141 143 140 130 136 145 135 128 111 131 113 59 337 6 22 327 28 333 326 337 337 352 350 349 348 346 342 343 342 339
140 129 124 122 113 111 100 97 99 118 141 137 138 141 127 156 146 114 112 135 183 320 55 312 342 313 313 329 335 358 349 347 342 345 344 345 345 339
140 142 135 133 135 124 112 95 81 70 73 91 98 99 104 106 109 127 141 165 132 68 72 28 323 296 302 305 352 355 348 343 344 342 342 343 343 341
137 134 137 136 142 132 118 110 98 90 91 99 102 105 105 103 101 90 34 69 11 36 27 31 344 319 313 312 353 346 341 334 340 340 337 340 342 342
133 134 144 146 145 139 128 128 119 125 118 106 103 98 87 86 79 81 98 104 100 18 6 39 29 3 326 312 336 326 320 326 332 332 332 337 339 337
138 139 147 145 143 140 132 130 133 135 126 113 111 106 98 105 80 75 76 95 91 308 71 86 67 337 261 300 308 305 323 319 318 317 321 331 334 335
142 138 138 139 139 135 127 132 135 126 121 118 119 123 131 108 90 80 74 80 165 231 286 259 207 170 263 302 298 316 316 310 312 305 328 323 326 326
132 136 134 136 133 126 131 133 127 127 125 121 121 118 106 120 117 83 33 22 302 273 239 206 193 257 257 283 295 310 318 306 301 330 322 317 319 320
126 126 128 122 121 126 122 120 111 115 123 125 129 115 99 82 95 69 67 353 357 336 304 240 246 320 301 285 284 293 300 299 315 319 314 309 315 315
128 125 126 122 115 116 103 101 103 104 117 109 116 121 120 119 102 117 79 3 58 300 303 298 333 297 270 271 294 289 295 294 309 314 320 321 317 316
133 136 137 138 137 137 133 121 120 126 119 128 127 134 128 119 115 113 105 90 323 306 304 315 328 322 325 303 268 292 299 317 318 316 319 309 309 316
129 137 138 139 140 139 134 139 135 134 130 135 138 128 126 125 118 108 57 63 328 285 315 332 332 6 334 326 280 312 326 314 316 316 313 309 302 305
138 142 140 141 142 140 136 132 125 134 136 134 131 128 125 124 91 75 45 328 273 297 348 346 339 330 323 313 304 304 315 310 316 313 315 308 290 296
127 125 131 132 132 128 125 125 136 143 140 136 121 121 126 110 102 85 301 340 352 351 329 330 322 320 288 316 325 300 305 315 313 315 313 313 316 313
122 122 122 120 123 126 128 132 136 135 130 122 128 121 137 140 160 147 26 336 333 314 290 306 299 314 0 228 303 304 310 314 316 310 314 317 303 309
116 115 118 121 125 129 131 134 126 128 126 123 119 121 135 143 91 335 341 349 328 300 311 309 298 321 283 257 321 313 314 319 322 327 319 320 317 316